User: anonymous   Login
Location: Unspecified
(0.0000°N, 0.0000°E)
Time: 09:05:39
(UTC+02:00)
Language:

ARIANE 5 R/B - Orbit

View from above orbital plane
View from above orbital plane
View from above satellite
View from above satellite

Ground track
Ground track

The orbit data is extracted from the following two-line orbital elements,

1 28379U 04027B   16174.40741718 -.00000130 +00000-0 -17813-2 0  9991
2 28379 007.0187 085.5506 7298823 198.2210 006.5849 02.07922725090631
Epoch (UTC): 22 June 2016 09:46:40
Eccentricity: 0.7298823
inclination: 7.0187°
perigee height: 626 km
apogee height: 38477 km
right ascension of ascending node: 85.5506°
argument of perigee: 198.2210°
revolutions per day: 2.07922725
mean anomaly at epoch: 6.5849°
orbit number at epoch: 9063

The dashed part of the orbit path shows where the satellite is in the earth's shadow,  

DLR